This demonstration page uses our WeatherBlox Daily Observations layout. Learn more.

Left ArrowRight Arrow

Hourly Observations for November 22, 2019

Temp ( °F °C ) Dew Point ( °F °C ) Humidity (%) Winds ( mph kmh ) Pressure ( in mb ) Visibility ( mi km ) Precip ( " mm )
12:53 am 00:53 Clear 41 5 31 -0.6 67 67 Calm 30.09 1019 10 16 0.00 0.00
1:53 am 01:53 Clear 41 5 30 -1.1 65 65 Calm 30.09 1019 10 16 0.00 0.00
2:53 am 02:53 Clear 38 3.3 29 -1.7 70 70 Calm 30.11 1020 10 16 0.00 0.00
3:53 am 03:53 Clear 38 3.3 29 -1.7 70 70 NNE 3 6 30.12 1020 10 16 0.00 0.00
4:53 am 04:53 Clear 37 2.8 31 -0.6 79 79 Calm 30.13 1020 10 16 0.00 0.00
5:53 am 05:53 Clear 37 2.8 29 -1.7 73 73 Calm 30.14 1021 10 16 0.00 0.00
6:53 am 06:53 Clear 37 2.8 29 -1.7 73 73 Calm 30.16 1021 10 16 0.00 0.00
7:53 am 07:53 Sunny 40 4.4 31 -0.6 70 70 Calm 30.19 1022 10 16 0.00 0.00
8:53 am 08:53 Sunny 48 8.9 34 1.1 58 58 Calm 30.19 1023 10 16 0.00 0.00
9:53 am 09:53 Sunny 55 12.8 35 1.7 47 47 N 3 6 30.20 1023 10 16 0.00 0.00
10:53 am 10:53 Sunny 59 15 35 1.7 41 41 VRB 3 6 30.19 1023 10 16 0.00 0.00
11:53 am 11:53 Sunny 63 17.2 36 2.2 37 37 Calm 30.17 1022 10 16 0.00 0.00
12:53 pm 12:53 Sunny 65 18.3 38 3.3 37 37 Calm 30.15 1021 10 16 0.00 0.00
1:53 pm 13:53 Sunny 66 18.9 37 2.8 34 34 VRB 3 6 30.14 1021 10 16 0.00 0.00
2:53 pm 14:53 Sunny 67 19.4 36 2.2 32 32 Calm 30.14 1021 10 16 0.00 0.00
3:53 pm 15:53 Sunny 66 18.9 36 2.2 33 33 Calm 30.14 1021 10 16 0.00 0.00
4:53 pm 16:53 Clear 59 15 37 2.8 44 44 Calm 30.14 1021 10 16 0.00 0.00
5:53 pm 17:53 Clear 56 13.3 36 2.2 47 47 Calm 30.15 1021 10 16 0.00 0.00
6:53 pm 18:53 Clear 51 10.6 37 2.8 59 59 Calm 30.17 1022 10 16 0.00 0.00
7:53 pm 19:53 Clear 48 8.9 34 1.1 58 58 N 3 6 30.19 1022 10 16 0.00 0.00
8:53 pm 20:53 Clear 46 7.8 33 0.6 61 61 NNW 3 6 30.22 1023 10 16 0.00 0.00
9:53 pm 21:53 Clear 46 7.8 35 1.7 66 66 Calm 30.22 1024 10 16 0.00 0.00
10:53 pm 22:53 Clear 44 6.7 34 1.1 68 68 Calm 30.22 1023 10 16 0.00 0.00
11:53 pm 23:53 Clear 42 5.6 32 0 68 68 Calm 30.21 1023 10 16 0.00 0.00

Powered by AerisWeather